User: anonymous   Login
Location: ASU Dark Sky Observatory
(36.2504°N, 81.4125°W)
Time: 04:38:48
(UTC-05:00)
Language:

ETS-7 - Orbit

View from above orbital plane
View from above orbital plane
View from above satellite
View from above satellite

Ground track
Ground track

The orbit data is extracted from the following two-line orbital elements,

1 25064U 97074B   14331.87947130  .00037774  00000-0  52282-3 0  3135
2 25064 034.9604 272.7561 0004908 217.1210 181.5431 15.56034026946600
Epoch (UTC): 27 November 2014 21:06:26
Eccentricity: 0.0004908
inclination: 34.9604°
perigee height: 396 km
apogee height: 402 km
right ascension of ascending node: 272.7561°
argument of perigee: 217.1210°
revolutions per day: 15.56034026
mean anomaly at epoch: 181.5431°
orbit number at epoch: 94660

The dashed part of the orbit path shows where the satellite is in the earth's shadow,  

DLR